sat.trackr.live / text

‹ back to catalog

STARLINK-31651

NORAD 59860 · 2024-098C

PAYLOAD ACTIVE UNKNOWN

§ Identity

Operator
Country
US
Launch date
2024-05-24
Launch site
AFETR
Launch vehicle
Mass (kg)
RCS (m²)

Purposes: comms

External: N2YO · Heavens-Above · Gunter

§ Orbital elements

Epoch: 2026-09-21T08:58:33.554208Z

Period
94.27 min
Inclination
43.0027°
Eccentricity
0.0001319
Mean motion
15.27577606 rev/d
Perigee alt
482.2 km
Apogee alt
484.0 km
Semi-major
6,861.2 km
B*
3.0482e-5
RAAN
252.8672°
Arg perigee
267.7735°
Mean anomaly
92.2965°
Rev number
13,177

§ Raw data

STARLINK-316511 59860U 24098C   26264.37399947  .00000577  00000+0  30482-4 0  99912 59860  43.0027 252.8672 0001319 267.7735  92.2965 15.27577606131777

JSON: /api/v1/satellites/59860 · /tle

For live sub-satellite position, see the globe view (requires WebGL).

§ Visibility from observer

Set your observer location to see the next 7 days of passes ≥ 10°. The values pass through the URL so the page stays shareable.

No JS? Fill the form by hand. The geolocation button needs JavaScript.